Weather History for Belo Horizonte Pamppulha, Brazil

Change the Weather History Date:

Thursday, June 20, 2013

  Actual Average Record
Temperature  
Mean Temperature 70 °F -  
Max Temperature 80 °F 76 °F 82 °F (1998)
Min Temperature 59 °F 55 °F 53 °F (2011)
Cooling Degree Days 4    
Growing Degree Days 20 (Base 50)    
Moisture  
Dew Point 54 °F    
Average Humidity 68    
Maximum Humidity 94    
Minimum Humidity 29    
Precipitation  
Precipitation 0.00 in - - ()
Sea Level Pressure  
Sea Level Pressure 30.11 in    
Wind  
Wind Speed 4 mph ()    
Max Wind Speed 9 mph    
Max Gust Speed -    
Visibility 6.2 miles    
Events      
Averages and records for this station are not official NWS values.
T = Trace of Precipitation, MM = Missing Value Source: Averaged Metar Reports

Daily Weather History Graph

Daily Weather History Graph

Search for Another Location

Airport:

Trip Planner

Search our weather history database for the weather conditions in past years. The results will help you decide how hot, cold, wet, or windy it might be!

Date:

Astronomy

Jun. 20, 2013 Rise Set
Actual Time 6:29 AM BRT 5:25 PM BRT
Civil Twilight 6:05 AM BRT 5:49 PM BRT
Nautical Twilight 5:38 AM BRT 6:16 PM BRT
Astronomical Twilight 5:10 AM BRT 6:44 PM BRT
Moon 2:49 PM BRT (6/20) 3:10 AM BRT (6/20)
Length of Visible Light 11h 43m
Length of Day
10h 55m
Waxing Gibbous, 88% of the Moon is Illuminated
Jun 20
Waxing Gibbous
Jun 23
Full
Jun 30
Last Quarter
Jul 8
New
Jul 16
First Quarter

Hourly Weather History & Observations

Time (BRT) Temp. Dew Point Humidity Pressure Visibility Wind Dir Wind Speed Gust Speed Precip Events Conditions
12:00 AM 60.8 °F 59.0 °F 94% 30.12 in - Calm Calm - N/A   Clear
1:00 AM 60.8 °F 59.0 °F 94% 30.12 in - East 2.3 mph - N/A   Clear
2:00 AM 60.8 °F 57.2 °F 88% 30.09 in - East 1.2 mph - N/A   Clear
3:00 AM 59.0 °F 57.2 °F 94% 30.09 in - East 2.3 mph - N/A   Clear
4:00 AM 59.0 °F 55.4 °F 88% 30.09 in - East 3.5 mph - N/A   Clear
5:00 AM 59.0 °F 57.2 °F 94% 30.09 in - East 3.5 mph - N/A   Clear
6:00 AM 59.0 °F 57.2 °F 94% 30.12 in - East 4.6 mph - N/A   Clear
7:00 AM 59.0 °F 57.2 °F 94% 30.15 in - East 5.8 mph - N/A   Clear
8:00 AM 66.2 °F 59.0 °F 78% 30.18 in - East 5.8 mph - N/A   Clear
9:00 AM 68.0 °F 59.0 °F 73% 30.18 in - East 8.1 mph - N/A   Clear
10:00 AM 71.6 °F 59.0 °F 64% 30.18 in - ESE 6.9 mph - N/A   Clear
11:00 AM 75.2 °F 59.0 °F 57% 30.18 in 6.2 mi ESE 5.8 mph - N/A   Partly Cloudy
12:00 PM 77.0 °F 55.4 °F 47% 30.15 in 6.2 mi NNE 4.6 mph - N/A   Partly Cloudy
1:00 PM 78.8 °F 51.8 °F 39% 30.12 in 6.2 mi East 4.6 mph - N/A   Scattered Clouds
2:00 PM 80.6 °F 46.4 °F 30% 30.06 in 6.2 mi ENE 5.8 mph - N/A   Scattered Clouds
3:00 PM 78.8 °F 44.6 °F 30% 30.06 in 6.2 mi ENE 8.1 mph - N/A   Scattered Clouds
4:00 PM 77.0 °F 42.8 °F 29% 30.06 in 6.2 mi East 8.1 mph - N/A   Partly Cloudy
5:00 PM 75.2 °F 42.8 °F 31% 30.06 in - East 9.2 mph - N/A   Clear
6:00 PM 69.8 °F 46.4 °F 43% 30.06 in - East 5.8 mph - N/A   Clear
7:00 PM 64.4 °F 51.8 °F 64% 30.09 in - ENE 3.5 mph - N/A   Clear
8:00 PM 62.6 °F 53.6 °F 72% 30.09 in - ENE 2.3 mph - N/A   Clear
9:00 PM 64.4 °F 55.4 °F 73% 30.09 in - East 6.9 mph - N/A   Clear
10:00 PM 62.6 °F 55.4 °F 77% 30.12 in - East 6.9 mph - N/A   Clear
11:00 PM 62.6 °F 55.4 °F 77% 30.09 in - East 5.8 mph - N/A   Clear